Altoona, PA

8:39 PM EDT on August 24, 2019 (GMT -0400)
Altoona-Blair County

Weather History for KAOO - May, 2019

Change the Weather History Date:

Friday, May 10, 2019

  Actual Average Record
Temperature  
Mean Temperature 65 °F 56 °F  
Max Temperature 73 °F 68 °F 87 °F (1970)
Min Temperature 56 °F 45 °F 25 °F (1966)
Degree Days  
Heating Degree Days 0 9  
Month to date heating degree days 25 102  
Since 1 July heating degree days 5579 6020  
Cooling Degree Days 0 0  
Month to date cooling degree days 8 0  
Year to date cooling degree days 8 6  
Growing Degree Days 16 (Base 50)    
Moisture  
Dew Point 59 °F    
Average Humidity 77    
Maximum Humidity 87    
Minimum Humidity 66    
Precipitation  
Precipitation 0.10 in 0.12 in 0.90 in (1959)
Month to date precipitation 2.01 1.15  
Year to date precipitation 14.82 11.62  
Sea Level Pressure  
Sea Level Pressure 29.98 in    
Wind  
Wind Speed 11 mph (WSW)    
Max Wind Speed 20 mph    
Max Gust Speed 26 mph    
Visibility 9 miles    
Events Rain    
T = Trace of Precipitation, MM = Missing Value Source: NWS Daily Summary

Daily Weather History Graph

Daily Weather History Graph

Search for Another Location

Airport or City:

Astronomy

May. 10, 2019 Rise Set
Actual Time 6:02 AM EDT 8:17 PM EDT
Civil Twilight 5:32 AM EDT 8:47 PM EDT
Nautical Twilight 4:54 AM EDT 9:25 PM EDT
Astronomical Twilight 4:14 AM EDT 10:06 PM EDT
Moon 11:00 AM EDT (5/10) 1:09 AM EDT (5/10)
Length of Visible Light 15h 15m
Length of Day
14h 14m
Waxing Crescent, 35% of the Moon is Illuminated
May 10
Waxing Crescent
May 11
First Quarter
May 18
Full
May 26
Last Quarter
Jun 3
New

Hourly Weather History & Observations

Time (EDT) Temp. Dew Point Humidity Pressure Visibility Wind Dir Wind Speed Gust Speed Precip Events Conditions
12:53 AM 64.9 °F 60.1 °F 84% 30.01 in 10.0 mi South 15.0 mph 21.9 mph N/A   Mostly Cloudy
1:53 AM 64.9 °F 59.0 °F 81% 29.99 in 10.0 mi South 12.7 mph 25.3 mph N/A   Overcast
2:53 AM 64.0 °F 59.0 °F 84% 29.99 in 10.0 mi SW 9.2 mph - 0.00 in Rain Light Rain
3:17 AM 64.0 °F 59.0 °F 84% 29.99 in 10.0 mi SSW 6.9 mph - 0.00 in   Overcast
3:29 AM 64.0 °F 59.0 °F 84% 29.99 in 10.0 mi SSW 9.2 mph - 0.00 in   Overcast
3:53 AM 64.0 °F 59.0 °F 84% 29.96 in 10.0 mi South 8.1 mph - 0.00 in   Overcast
4:53 AM 64.0 °F 59.0 °F 84% 29.96 in 10.0 mi South 11.5 mph - N/A   Overcast
5:53 AM 63.0 °F 59.0 °F 87% 29.94 in 10.0 mi South 10.4 mph - 0.00 in Rain Light Rain
6:53 AM 64.0 °F 59.0 °F 84% 29.95 in 10.0 mi SSW 9.2 mph - 0.00 in   Overcast
7:53 AM 64.9 °F 59.0 °F 81% 29.94 in 10.0 mi South 11.5 mph - N/A   Overcast
8:53 AM 64.0 °F 60.1 °F 87% 29.97 in 2.5 mi West 9.2 mph - 0.03 in Rain Heavy Rain
9:01 AM 63.0 °F 60.1 °F 90% 29.98 in 1.5 mi WSW 8.1 mph - 0.03 in Rain Rain
9:08 AM 63.0 °F 60.1 °F 90% 29.99 in 2.0 mi West 8.1 mph - 0.05 in Rain Rain
9:18 AM 63.0 °F 61.0 °F 93% 29.99 in 3.0 mi SW 8.1 mph - 0.06 in Rain Light Rain
9:53 AM 64.0 °F 61.0 °F 90% 29.97 in 10.0 mi SSW 11.5 mph - 0.06 in   Overcast
10:53 AM 66.0 °F 61.0 °F 84% 29.97 in 10.0 mi SSW 8.1 mph - 0.00 in Rain Light Rain
11:53 AM 69.1 °F 62.1 °F 78% 29.97 in 10.0 mi SW 9.2 mph - 0.00 in   Overcast
12:21 PM 70.0 °F 63.0 °F 78% 29.99 in 10.0 mi SSW 8.1 mph - N/A   Overcast
12:53 PM 69.1 °F 62.1 °F 78% 29.98 in 9.0 mi West 16.1 mph 23.0 mph 0.00 in Rain Light Rain
1:53 PM 70.0 °F 61.0 °F 73% 29.96 in 10.0 mi WSW 15.0 mph 20.7 mph 0.01 in   Overcast
2:53 PM 72.0 °F 62.1 °F 71% 29.96 in 10.0 mi WSW 12.7 mph - N/A   Scattered Clouds
3:53 PM 73.0 °F 62.1 °F 68% 29.94 in 10.0 mi SSW 12.7 mph - N/A   Mostly Cloudy
4:53 PM 70.0 °F 61.0 °F 73% 29.96 in 10.0 mi SW 9.2 mph - 0.00 in   Overcast
5:53 PM 68.0 °F 57.9 °F 70% 29.97 in 10.0 mi WSW 13.8 mph - N/A   Overcast
6:53 PM 69.1 °F 57.9 °F 68% 29.96 in 10.0 mi WSW 12.7 mph - N/A   Overcast
7:53 PM 66.9 °F 57.9 °F 73% 29.98 in 10.0 mi WSW 8.1 mph - N/A   Mostly Cloudy
8:12 PM 66.9 °F 57.9 °F 73% 30.01 in 10.0 mi NW 10.4 mph - N/A   Overcast
8:20 PM 66.0 °F 57.9 °F 75% 30.01 in 10.0 mi NW 12.7 mph - N/A   Overcast
8:53 PM 64.0 °F 57.0 °F 78% 30.02 in 10.0 mi NW 10.4 mph - N/A   Mostly Cloudy
9:40 PM 62.1 °F 55.0 °F 78% 30.04 in 10.0 mi NW 6.9 mph - N/A   Mostly Cloudy
9:53 PM 62.1 °F 53.1 °F 72% 30.03 in 10.0 mi NW 12.7 mph 19.6 mph N/A   Mostly Cloudy
10:53 PM 60.1 °F 52.0 °F 75% 30.03 in 10.0 mi WNW 8.1 mph - N/A   Overcast
11:53 PM 57.9 °F 51.1 °F 78% 30.04 in 10.0 mi NW 6.9 mph - N/A   Overcast